Location: Ferchesar
(52.6477°N, 12.4298°E)
Time: 14:46:36
(UTC+02:00)

AO-73 - Visible Passes

Search period start: 23 October 2021 00:00
Search period end: 01 November 2021 23:00
Orbit: 580 x 662 km, 97.6° (Epoch: 22 October)

Date Brightness Start Highest point End Pass type
(mag) Time Alt. Az. Time Alt. Az. Time Alt. Az.
23 Oct ? 05:45:40 10° NNE 05:49:47 60° E 05:53:55 10° S visible
24 Oct ? 04:29:06 10° ENE 04:30:37 12° E 04:32:08 10° ESE visible
24 Oct ? 06:03:16 10° NNE 06:07:26 88° E 06:11:39 10° SSW visible
25 Oct ? 04:45:43 10° NE 04:48:28 17° E 04:51:14 10° SE visible
25 Oct ? 06:20:57 10° N 06:25:04 63° WNW 06:29:13 10° SSW visible
26 Oct ? 05:02:51 10° NE 05:06:17 24° E 05:09:43 10° SSE visible
26 Oct ? 06:38:41 10° N 06:42:38 43° WNW 06:46:37 10° SW visible
27 Oct ? 05:20:11 10° NNE 05:24:02 35° E 05:27:55 10° SSE visible
27 Oct ? 06:56:31 10° N 07:00:10 31° WNW 07:03:53 10° SW visible
28 Oct ? 05:37:40 10° NNE 05:41:45 51° E 05:45:53 10° S visible
28 Oct ? 07:14:25 10° N 07:17:41 22° WNW 07:20:57 10° WSW visible
29 Oct ? 04:22:14 10° E 04:22:31 10° E 04:22:47 10° E visible
29 Oct ? 05:55:13 10° NNE 05:59:25 76° ESE 06:03:40 10° S visible
30 Oct ? 04:37:56 10° NE 04:40:23 15° E 04:42:50 10° ESE visible
30 Oct ? 06:12:52 10° N 06:17:03 74° WNW 06:21:18 10° SSW visible
31 Oct ? 03:54:56 10° NE 03:58:12 21° E 04:01:29 10° SE visible
31 Oct ? 05:30:34 10° N 05:34:39 51° WNW 05:38:47 10° SW visible
01 Nov ? 04:12:13 10° NNE 04:15:58 30° E 04:19:46 10° SSE visible
01 Nov ? 05:48:20 10° N 05:52:12 35° WNW 05:56:06 10° SW visible
